DELTA 1 DEB (YO), 228

Orbit data source: Space-Track

DELTA 1 DEB (YO), 228 is space debris in LEO originally from a launch on Thu, 08 Feb 1962 UTC launched from the Air Force Eastern Test Range (AFETR). Debris objects in space refer to the collection of defunct objects orbiting the Earth. Examples of debris include non-operational satellites, rocket bodies, and fragments generated from explosions, collisions, or faulty payload assembly.

Loading next visibility...
DELTA 1 DEB (YO) details
Identifier
228, 1962-002C
Orbit
LEO
Last TLE update20 hours ago
Origin
Flag of USGSFC (US)
ManufacturerRCA/East Windsor
MissionSpacecraft
Bus & MotorUnknown
Mass~1 kg wet, ~1 kg dry
Launch date (UTC)
1962-02-08 (63 years ago)
Launch vehicleUnknown
Launch site
Air Force Eastern Test Range (AFETR)
Object type
Payload
Rocket body
Debris
Shape & HBRUnknown
Radar Cross SectionSmall (<0.1 m²)

Expand to show TLE details & history

TLE from 20 hours ago
0 DELTA 1 DEB (YO)
1 00228U 62002C   25013.55702671  .00017782  00000-0  73054-3 0  9993
2 00228  48.4291 136.5407 0012818 247.6042 112.3533 15.24088633363171
Epoch: 2025-01-13T13:22Z
Definitive object data (Epoch: 2025-01-13T13:22:07.107Z)
Latitude-0.00004°
Longitude-177.26532°
Altitude497.263 km
Speed7.616 km/s
True Right ascension09h 06m 09s
True Declination0° 00' 00"
Sunlit
Object was in full shadow at TLE epoch
Visualization TLE readout
Latitude-40.18979°
Longitude130.27728°
Altitude500.414 km
Speed7.617 km/s
Apparent Right ascension02h 05m 04s
Apparent Declination-56° 02' 43"
Sunlit
Object is in partial shadow
Visualization observer readout
Local Sidereal Time10:09:45
Azimuth226.678° WSW
Elevation-48.934°
Doppler factor1
Orbital elements
Apogee altitude503.365 km
Perigee altitude485.747 km
Semi-major axis6,872.693 km
Eccentricity0.0012818
Inclination48.4291°
RAAN136.5407°
Arg. of periapsis247.6042°
True anomaly112.48906°
Mean anomaly112.3533°
Eccentric anomaly112.42119°
Mean motion3.80937 °/min
BSTAR0.00073054
Orbital period94.5 mins
Loading maneuver chart data...
Loading historical data...
Loading historical data...
Loading historical data...
Loading historical data...
Loading historical data...
Loading historical data...
Loading historical data...

DELTA 1 DEB (YO) Visibility forecast

Observer location: undefined°, undefined

Span
Click to sort rows by Start time (UTC) header in descending order
Start Az.
Max El. time (UTC)
Max El. Az.
Max El.
End time (UTC)
End Az.
5 mins2025-01-14 09:58:48.030Z182.975° SSW2025-01-14 10:01:48.030Z130.373° SE18.895°2025-01-14 10:03:48.030Z94.346° ESE
6 mins2025-01-14 11:37:48.030Z252.666° W2025-01-14 11:39:48.030Z307.493° NW42.47°2025-01-14 11:43:48.030Z55.258° ENE
4 mins2025-01-14 13:17:48.030Z316.258° NNW2025-01-14 13:18:48.030Z338.903° N22.622°2025-01-14 13:21:48.030Z41.018° NE
5 mins2025-01-14 14:56:48.030Z326.65° NNW2025-01-14 14:58:48.030Z10.373° NNE23.099°2025-01-14 15:01:48.030Z65.651° ENE
5 mins2025-01-14 16:35:48.030Z309.459° NW2025-01-14 16:37:48.030Z3.822° NNE42.698°2025-01-14 16:40:48.030Z110.689° ESE
4 mins2025-01-14 18:14:48.030Z256.652° W2025-01-14 18:16:48.030Z216.27° SW18.248°2025-01-14 18:18:48.030Z181.965° SSW
|